Back to catalog

RAX

USA 218

AliveScienceVLEO
NORAD 37223·PAYLOAD·🇺🇸 United States

Launched Nov 20, 2010 from Kodiak Launch Complex

Loading…

Next Passes (next 24 hours)

TLE

FreshSource: Space-Track

Epoch: Sep 14, 2026, 14:29 UTC

1 37223U 10062B   26257.60399637  .00002573  00000-0  20717-3 0  9998
2 37223  71.9699 194.8254 0014946 227.9587 132.0316 15.00825680127626

Track RAX in real time with AllMySat

Download on the App Store